This is the latest recevied weather packets stored in our database for station/object KQ4NAL. If no packets are shown the sender has not sent any weather packets the latest 10 day(s).
| Time | Temp. | Humidity | Pressure | Rain* | Wind** | Luminosity | Snow |
|---|---|---|---|---|---|---|---|
| 1778092407 | 15.56° C | 55% | 1013.4 hPa | 0 mm | - | 688 W/m² | - |
| 1778092105 | 16.11° C | 57% | 1013.6 hPa | 0 mm | - | 722 W/m² | - |
| 1778091801 | 16.11° C | 53% | 1013.6 hPa | 0 mm | - | 739 W/m² | - |
| 1778091499 | 15.56° C | 54% | 1013.6 hPa | 0 mm | - | 629 W/m² | - |
| 1778091196 | 16.11° C | 55% | 1013.8 hPa | 0 mm | - | 734 W/m² | - |
| 1778090894 | 16.11° C | 57% | 1013.6 hPa | 0 mm | - | 693 W/m² | - |
| 1778090589 | 15.56° C | 58% | 1013.9 hPa | 0 mm | - | 766 W/m² | - |
| 1778090286 | 15° C | 56% | 1013.9 hPa | 0 mm | - | 683 W/m² | - |
| 1778089983 | 15.56° C | 55% | 1014.1 hPa | 0 mm | - | 576 W/m² | - |
| 1778089680 | 15.56° C | 57% | 1013.9 hPa | 0 mm | - | 741 W/m² | - |
| 1778089377 | 15.56° C | 55% | 1013.8 hPa | 0 mm | - | 736 W/m² | - |
| 1778089075 | 15° C | 55% | 1014.1 hPa | 0 mm | - | 697 W/m² | - |
| 1778088772 | 14.44° C | 59% | 1014.3 hPa | 0 mm | - | 477 W/m² | - |
| 1778088468 | 15° C | 58% | 1014.5 hPa | 0 mm | - | 930 W/m² | - |
| 1778088165 | 15° C | 59% | 1014.1 hPa | 0 mm | - | 643 W/m² | - |
| 1778087863 | 14.44° C | 60% | 1014.2 hPa | 0 mm | - | 599 W/m² | - |
| 1778087560 | 14.44° C | 58% | 1014.3 hPa | 0 mm | - | 545 W/m² | - |
| 1778087257 | 13.89° C | 60% | 1014.5 hPa | 0 mm | - | 615 W/m² | - |
| 1778086954 | 13.89° C | 61% | 1014.4 hPa | 0 mm | - | 576 W/m² | - |
| 1778086652 | 14.44° C | 60% | 1014.6 hPa | 0 mm | - | 560 W/m² | - |
| 1778086349 | 13.89° C | 62% | 1014.5 hPa | 0 mm | - | 582 W/m² | - |
| 1778086046 | 13.89° C | 63% | 1014.5 hPa | 0 mm | - | 597 W/m² | - |
| 1778085743 | 13.89° C | 63% | 1014.2 hPa | 0 mm | - | 587 W/m² | - |
| 1778085440 | 13.89° C | 65% | 1014.5 hPa | 0 mm | - | 519 W/m² | - |
| 1778085134 | 13.33° C | 64% | 1014.6 hPa | 0 mm | - | 567 W/m² | - |
* Rain latest hour (hover to see other rain measurements)
** Current wind speed in m/s (hover to see current wind gust speed)